"Sample Date","Sample Time","Sample Value","Units","Flow Rate","Number Channels","Micron Size 0","Counts/Channel 0","Micron Size 1","Counts/Channel 1","Micron Size 2","Counts/Channel 2","Micron Size 3","Counts/Channel 3","Micron Size 4","Counts/Channel 4","Micron Size 5","Counts/Channel 5","Micron Size 6","Counts/Channel 6","Micron Size 7","Counts/Channel 7","Micron Size 8","Counts/Channel 8","Micron Size 9","Counts/Channel 9","Micron Size 10","Counts/Channel 10","Micron Size 11","Counts/Channel 11","Micron Size 12","Counts/Channel 12","Micron Size 13","Counts/Channel 13","Micron Size 14","Counts/Channel 14","Micron Size 15","Counts/Channel 15","Micron Size 16","Counts/Channel 16","Micron Size 17","Counts/Channel 17","Micron Size 18","Counts/Channel 18","Micron Size 19","Counts/Channel 19","Micron Size 20","Counts/Channel 20","Micron Size 21","Counts/Channel 21","Micron Size 22","Counts/Channel 22","Micron Size 23","Counts/Channel 23","Micron Size 24","Counts/Channel 24","Micron Size 25","Counts/Channel 25","Micron Size 26","Counts/Channel 26","Micron Size 27","Counts/Channel 27","Micron Size 28","Counts/Channel 28","Micron Size 29","Counts/Channel 29","Micron Size 30","Counts/Channel 30","Micron Size 31","Counts/Channel 31"
"05/05/08","00:00:01",221.000,"cc",28255.586,6,0.100,97.000,0.200,28.000,0.300,41.000,0.500,54.000,1.000,1.000,5.000,0
"05/05/08","00:00:07",236.000,"cc",28398.248,6,0.100,94.000,0.200,32.000,0.300,38.000,0.500,72.000,1.000,0,5.000,0
"05/05/08","00:00:13",255.000,"cc",28322.205,6,0.100,110.000,0.200,36.000,0.300,47.000,0.500,61.000,1.000,1.000,5.000,0
"05/05/08","00:00:19",258.000,"cc",28247.262,6,0.100,115.000,0.200,29.000,0.300,41.000,0.500,72.000,1.000,1.000,5.000,0
"05/05/08","00:00:25",259.000,"cc",28310.684,6,0.100,136.000,0.200,37.000,0.300,31.000,0.500,54.000,1.000,1.000,5.000,0
"05/05/08","00:00:31",270.000,"cc",28302.818,6,0.100,107.000,0.200,38.000,0.300,50.000,0.500,71.000,1.000,4.000,5.000,0
"05/05/08","00:00:37",236.000,"cc",28315.473,6,0.100,104.000,0.200,21.000,0.300,42.000,0.500,66.000,1.000,3.000,5.000,0
"05/05/08","00:00:43",253.000,"cc",28344.981,6,0.100,101.000,0.200,37.000,0.300,42.000,0.500,72.000,1.000,1.000,5.000,0
"05/05/08","00:00:49",241.000,"cc",28337.422,6,0.100,95.000,0.200,28.000,0.300,45.000,0.500,71.000,1.000,2.000,5.000,0
"05/05/08","00:00:55",240.000,"cc",28287.123,6,0.100,86.000,0.200,31.000,0.300,48.000,0.500,73.000,1.000,2.000,5.000,0
"05/05/08","00:01:01",227.000,"cc",28288.168,6,0.100,93.000,0.200,26.000,0.300,42.000,0.500,65.000,1.000,1.000,5.000,0
"05/05/08","00:01:07",227.000,"cc",28350.377,6,0.100,108.000,0.200,26.000,0.300,26.000,0.500,66.000,1.000,1.000,5.000,0
"05/05/08","00:01:13",225.000,"cc",28347.031,6,0.100,105.000,0.200,33.000,0.300,25.000,0.500,59.000,1.000,3.000,5.000,0
"05/05/08","00:01:19",227.000,"cc",28250.723,6,0.100,85.000,0.200,33.000,0.300,36.000,0.500,73.000,1.000,0,5.000,0
"05/05/08","00:01:25",231.000,"cc",28291.000,6,0.100,103.000,0.200,27.000,0.300,46.000,0.500,54.000,1.000,1.000,5.000,0
"05/05/08","00:01:31",221.000,"cc",28314.053,6,0.100,90.000,0.200,24.000,0.300,42.000,0.500,61.000,1.000,4.000,5.000,0
"05/05/08","00:01:37",188.000,"cc",28326.617,6,0.100,88.000,0.200,24.000,0.300,29.000,0.500,44.000,1.000,3.000,5.000,0
"05/05/08","00:01:43",192.000,"cc",28323.016,6,0.100,76.000,0.200,27.000,0.300,31.000,0.500,58.000,1.000,0,5.000,0
"05/05/08","00:01:49",212.000,"cc",28317.748,6,0.100,86.000,0.200,28.000,0.300,34.000,0.500,61.000,1.000,3.000,5.000,0
"05/05/08","00:01:55",201.000,"cc",28336.065,6,0.100,83.000,0.200,24.000,0.300,31.000,0.500,58.000,1.000,5.000,5.000,0
"05/05/08","00:02:01",212.000,"cc",28352.115,6,0.100,105.000,0.200,32.000,0.300,30.000,0.500,45.000,1.000,0,5.000,0
"05/05/08","00:02:07",212.000,"cc",28303.311,6,0.100,85.000,0.200,28.000,0.300,35.000,0.500,61.000,1.000,3.000,5.000,0
"05/05/08","00:02:13",228.000,"cc",28295.973,6,0.100,104.000,0.200,28.000,0.300,33.000,0.500,63.000,1.000,0,5.000,0
"05/05/08","00:02:19",217.000,"cc",28333.338,6,0.100,86.000,0.200,32.000,0.300,39.000,0.500,59.000,1.000,1.000,5.000,0
"05/05/08","00:02:25",236.000,"cc",28329.342,6,0.100,96.000,0.200,35.000,0.300,41.000,0.500,60.000,1.000,4.000,5.000,0
"05/05/08","00:02:31",198.000,"cc",28281.629,6,0.100,86.000,0.200,24.000,0.300,43.000,0.500,44.000,1.000,1.000,5.000,0
"05/05/08","00:02:37",188.000,"cc",28304.912,6,0.100,84.000,0.200,27.000,0.300,20.000,0.500,56.000,1.000,1.000,5.000,0
"05/05/08","00:02:43",206.000,"cc",28393.133,6,0.100,88.000,0.200,41.000,0.300,28.000,0.500,48.000,1.000,1.000,5.000,0
"05/05/08","00:02:49",224.000,"cc",28294.547,6,0.100,100.000,0.200,24.000,0.300,41.000,0.500,58.000,1.000,1.000,5.000,0
"05/05/08","00:02:55",229.000,"cc",28360.475,6,0.100,103.000,0.200,32.000,0.300,34.000,0.500,60.000,1.000,0,5.000,0
"05/05/08","00:03:01",231.000,"cc",28311.953,6,0.100,114.000,0.200,30.000,0.300,32.000,0.500,53.000,1.000,2.000,5.000,0
"05/05/08","00:03:07",209.000,"cc",28327.840,6,0.100,81.000,0.200,25.000,0.300,39.000,0.500,62.000,1.000,2.000,5.000,0
"05/05/08","00:03:13",224.000,"cc",28284.520,6,0.100,121.000,0.200,31.000,0.300,29.000,0.500,43.000,1.000,0,5.000,0
"05/05/08","00:03:19",248.000,"cc",28303.568,6,0.100,121.000,0.200,24.000,0.300,41.000,0.500,62.000,1.000,0,5.000,0
"05/05/08","00:03:25",208.000,"cc",28323.461,6,0.100,91.000,0.200,29.000,0.300,33.000,0.500,54.000,1.000,1.000,5.000,0
"05/05/08","00:03:31",191.000,"cc",28324.356,6,0.100,96.000,0.200,31.000,0.300,25.000,0.500,39.000,1.000,0,5.000,0
"05/05/08","00:03:37",192.000,"cc",28299.547,6,0.100,96.000,0.200,31.000,0.300,17.000,0.500,47.000,1.000,1.000,5.000,0
"05/05/08","00:03:43",205.000,"cc",28334.824,6,0.100,93.000,0.200,31.000,0.300,28.000,0.500,51.000,1.000,2.000,5.000,0
"05/05/08","00:03:49",184.000,"cc",28327.633,6,0.100,85.000,0.200,27.000,0.300,30.000,0.500,42.000,1.000,0,5.000,0
"05/05/08","00:03:55",203.000,"cc",28326.977,6,0.100,87.000,0.200,36.000,0.300,33.000,0.500,47.000,1.000,0,5.000,0
"05/05/08","00:04:01",200.000,"cc",28297.467,6,0.100,89.000,0.200,19.000,0.300,42.000,0.500,50.000,1.000,0,5.000,0
"05/05/08","00:04:07",210.000,"cc",28232.828,6,0.100,91.000,0.200,33.000,0.300,43.000,0.500,42.000,1.000,1.000,5.000,0
"05/05/08","00:04:13",210.000,"cc",28324.674,6,0.100,91.000,0.200,37.000,0.300,30.000,0.500,52.000,1.000,0,5.000,0
"05/05/08","00:04:19",234.000,"cc",28369.586,6,0.100,105.000,0.200,35.000,0.300,40.000,0.500,54.000,1.000,0,5.000,0
"05/05/08","00:04:25",192.000,"cc",28354.783,6,0.100,98.000,0.200,17.000,0.300,34.000,0.500,43.000,1.000,0,5.000,0
"05/05/08","00:04:31",217.000,"cc",28257.635,6,0.100,100.000,0.200,35.000,0.300,31.000,0.500,51.000,1.000,0,5.000,0
"05/05/08","00:04:37",216.000,"cc",28243.619,6,0.100,96.000,0.200,29.000,0.300,47.000,0.500,43.000,1.000,1.000,5.000,0
"05/05/08","00:04:43",210.000,"cc",28333.037,6,0.100,90.000,0.200,28.000,0.300,36.000,0.500,56.000,1.000,0,5.000,0
"05/05/08","00:04:49",209.000,"cc",28348.969,6,0.100,87.000,0.200,28.000,0.300,44.000,0.500,50.000,1.000,0,5.000,0
"05/05/08","00:04:55",211.000,"cc",28278.385,6,0.100,86.000,0.200,30.000,0.300,49.000,0.500,42.000,1.000,4.000,5.000,0
"05/05/08","00:05:01",220.000,"cc",28353.885,6,0.100,93.000,0.200,33.000,0.300,46.000,0.500,46.000,1.000,2.000,5.000,0
"05/05/08","00:05:07",335.000,"cc",28353.883,6,0.100,132.000,0.200,46.000,0.300,64.000,0.500,59.000,1.000,34.000,5.000,0
"05/05/08","00:05:13",214.000,"cc",28292.158,6,0.100,69.000,0.200,38.000,0.300,70.000,0.500,36.000,1.000,1.000,5.000,0
"05/05/08","00:05:19",323.000,"cc",28285.596,6,0.100,116.000,0.200,57.000,0.300,66.000,0.500,58.000,1.000,26.000,5.000,0
"05/05/08","00:05:25",221.000,"cc",28330.059,6,0.100,95.000,0.200,36.000,0.300,44.000,0.500,41.000,1.000,5.000,5.000,0
"05/05/08","00:05:31",235.000,"cc",28301.684,6,0.100,113.000,0.200,37.000,0.300,46.000,0.500,38.000,1.000,1.000,5.000,0
"05/05/08","00:05:37",343.000,"cc",28348.809,6,0.100,118.000,0.200,61.000,0.300,47.000,0.500,58.000,1.000,57.000,5.000,2.000
"05/05/08","00:05:43",217.000,"cc",28296.596,6,0.100,107.000,0.200,29.000,0.300,44.000,0.500,37.000,1.000,0,5.000,0
"05/05/08","00:05:49",219.000,"cc",28308.936,6,0.100,94.000,0.200,31.000,0.300,48.000,0.500,40.000,1.000,6.000,5.000,0
"05/05/08","00:05:55",253.000,"cc",28308.209,6,0.100,93.000,0.200,38.000,0.300,48.000,0.500,55.000,1.000,18.000,5.000,1.000
"05/05/08","00:06:01",199.000,"cc",28329.393,6,0.100,93.000,0.200,26.000,0.300,44.000,0.500,36.000,1.000,0,5.000,0
"05/05/08","00:06:07",214.000,"cc",28313.844,6,0.100,94.000,0.200,38.000,0.300,42.000,0.500,40.000,1.000,0,5.000,0
"05/05/08","00:06:13",190.000,"cc",28294.043,6,0.100,93.000,0.200,26.000,0.300,36.000,0.500,33.000,1.000,2.000,5.000,0
"05/05/08","00:06:19",217.000,"cc",28331.785,6,0.100,103.000,0.200,20.000,0.300,47.000,0.500,47.000,1.000,0,5.000,0
"05/05/08","00:06:25",185.000,"cc",28326.049,6,0.100,76.000,0.200,27.000,0.300,43.000,0.500,39.000,1.000,0,5.000,0
"05/05/08","00:06:31",413.000,"cc",28321.313,6,0.100,163.000,0.200,62.000,0.300,72.000,0.500,65.000,1.000,51.000,5.000,0
"05/05/08","00:06:37",247.000,"cc",28341.188,6,0.100,116.000,0.200,44.000,0.300,44.000,0.500,40.000,1.000,3.000,5.000,0
"05/05/08","00:06:43",197.000,"cc",28323.637,6,0.100,94.000,0.200,32.000,0.300,32.000,0.500,39.000,1.000,0,5.000,0
"05/05/08","00:06:49",226.000,"cc",28326.289,6,0.100,77.000,0.200,35.000,0.300,55.000,0.500,59.000,1.000,0,5.000,0
"05/05/08","00:06:55",246.000,"cc",28336.797,6,0.100,108.000,0.200,46.000,0.300,52.000,0.500,30.000,1.000,10.000,5.000,0
"05/05/08","00:07:01",500.000,"cc",28284.510,6,0.100,174.000,0.200,79.000,0.300,80.000,0.500,81.000,1.000,83.000,5.000,3.000
"05/05/08","00:07:07",339.000,"cc",28244.715,6,0.100,117.000,0.200,45.000,0.300,74.000,0.500,58.000,1.000,45.000,5.000,0
"05/05/08","00:07:13",231.000,"cc",28342.543,6,0.100,105.000,0.200,30.000,0.300,55.000,0.500,41.000,1.000,0,5.000,0
"05/05/08","00:07:19",184.000,"cc",28332.813,6,0.100,84.000,0.200,28.000,0.300,46.000,0.500,26.000,1.000,0,5.000,0
"05/05/08","00:07:25",236.000,"cc",28283.965,6,0.100,95.000,0.200,39.000,0.300,50.000,0.500,48.000,1.000,4.000,5.000,0
"05/05/08","00:07:31",219.000,"cc",28310.658,6,0.100,89.000,0.200,30.000,0.300,55.000,0.500,42.000,1.000,3.000,5.000,0
"05/05/08","00:07:37",708.000,"cc",28338.627,6,0.100,216.000,0.200,109.000,0.300,107.000,0.500,104.000,1.000,170.000,5.000,2.000
"05/05/08","00:07:43",330.000,"cc",28335.619,6,0.100,128.000,0.200,64.000,0.300,59.000,0.500,59.000,1.000,20.000,5.000,0
"05/05/08","00:07:49",221.000,"cc",28334.078,6,0.100,82.000,0.200,31.000,0.300,71.000,0.500,37.000,1.000,0,5.000,0
"05/05/08","00:07:55",207.000,"cc",28292.779,6,0.100,90.000,0.200,28.000,0.300,50.000,0.500,39.000,1.000,0,5.000,0
"05/05/08","00:08:01",197.000,"cc",28326.531,6,0.100,71.000,0.200,23.000,0.300,56.000,0.500,46.000,1.000,1.000,5.000,0
"05/05/08","00:08:07",237.000,"cc",28316.629,6,0.100,90.000,0.200,36.000,0.300,58.000,0.500,52.000,1.000,1.000,5.000,0
"05/05/08","00:08:13",235.000,"cc",28336.785,6,0.100,108.000,0.200,25.000,0.300,60.000,0.500,42.000,1.000,0,5.000,0
"05/05/08","00:08:19",219.000,"cc",28291.588,6,0.100,88.000,0.200,28.000,0.300,63.000,0.500,40.000,1.000,0,5.000,0
"05/05/08","00:08:25",597.000,"cc",28368.932,6,0.100,190.000,0.200,91.000,0.300,94.000,0.500,77.000,1.000,142.000,5.000,3.000
"05/05/08","00:08:31",221.000,"cc",28366.531,6,0.100,96.000,0.200,28.000,0.300,62.000,0.500,34.000,1.000,1.000,5.000,0
"05/05/08","00:08:37",205.000,"cc",28279.674,6,0.100,83.000,0.200,35.000,0.300,55.000,0.500,32.000,1.000,0,5.000,0
"05/05/08","00:08:43",192.000,"cc",28330.975,6,0.100,65.000,0.200,29.000,0.300,59.000,0.500,39.000,1.000,0,5.000,0
"05/05/08","00:08:49",244.000,"cc",28260.475,6,0.100,111.000,0.200,39.000,0.300,61.000,0.500,31.000,1.000,2.000,5.000,0
"05/05/08","00:08:55",233.000,"cc",28320.955,6,0.100,90.000,0.200,40.000,0.300,70.000,0.500,33.000,1.000,0,5.000,0
"05/05/08","00:09:01",262.000,"cc",28303.594,6,0.100,107.000,0.200,30.000,0.300,60.000,0.500,46.000,1.000,18.000,5.000,1.000
"05/05/08","00:09:07",256.000,"cc",28310.502,6,0.100,96.000,0.200,33.000,0.300,87.000,0.500,39.000,1.000,1.000,5.000,0
"05/05/08","00:09:13",230.000,"cc",28371.336,6,0.100,93.000,0.200,31.000,0.300,71.000,0.500,35.000,1.000,0,5.000,0
"05/05/08","00:09:19",248.000,"cc",28310.039,6,0.100,109.000,0.200,36.000,0.300,68.000,0.500,35.000,1.000,0,5.000,0
"05/05/08","00:09:25",239.000,"cc",28309.981,6,0.100,92.000,0.200,37.000,0.300,81.000,0.500,29.000,1.000,0,5.000,0
"05/05/08","00:09:31",205.000,"cc",28294.432,6,0.100,71.000,0.200,30.000,0.300,64.000,0.500,40.000,1.000,0,5.000,0
"05/05/08","00:09:37",228.000,"cc",28301.719,6,0.100,89.000,0.200,41.000,0.300,65.000,0.500,33.000,1.000,0,5.000,0
"05/05/08","00:09:43",212.000,"cc",28354.139,6,0.100,90.000,0.200,33.000,0.300,51.000,0.500,38.000,1.000,0,5.000,0
"05/05/08","00:09:49",221.000,"cc",28345.709,6,0.100,96.000,0.200,29.000,0.300,68.000,0.500,28.000,1.000,0,5.000,0
"05/05/08","00:09:55",353.000,"cc",28216.287,6,0.100,206.000,0.200,37.000,0.300,71.000,0.500,38.000,1.000,1.000,5.000,0
"05/05/08","00:10:01",257.000,"cc",28241.807,6,0.100,106.000,0.200,44.000,0.300,70.000,0.500,37.000,1.000,0,5.000,0
"05/05/08","00:10:07",224.000,"cc",28393.523,6,0.100,84.000,0.200,37.000,0.300,63.000,0.500,40.000,1.000,0,5.000,0
"05/05/08","00:10:13",263.000,"cc",28364.404,6,0.100,111.000,0.200,30.000,0.300,73.000,0.500,49.000,1.000,0,5.000,0
"05/05/08","00:10:19",265.000,"cc",28286.121,6,0.100,106.000,0.200,36.000,0.300,77.000,0.500,46.000,1.000,0,5.000,0
"05/05/08","00:10:25",229.000,"cc",28297.191,6,0.100,94.000,0.200,24.000,0.300,74.000,0.500,37.000,1.000,0,5.000,0
"05/05/08","00:10:31",201.000,"cc",28336.492,6,0.100,75.000,0.200,30.000,0.300,61.000,0.500,35.000,1.000,0,5.000,0
"05/05/08","00:10:37",230.000,"cc",28312.357,6,0.100,102.000,0.200,29.000,0.300,57.000,0.500,42.000,1.000,0,5.000,0
"05/05/08","00:10:43",231.000,"cc",28381.440,6,0.100,75.000,0.200,31.000,0.300,83.000,0.500,42.000,1.000,0,5.000,0
"05/05/08","00:10:49",241.000,"cc",28346.492,6,0.100,91.000,0.200,43.000,0.300,74.000,0.500,33.000,1.000,0,5.000,0
"05/05/08","00:10:55",231.000,"cc",28288.998,6,0.100,89.000,0.200,35.000,0.300,69.000,0.500,38.000,1.000,0,5.000,0
"05/05/08","00:11:01",242.000,"cc",28278.658,6,0.100,95.000,0.200,41.000,0.300,63.000,0.500,43.000,1.000,0,5.000,0
"05/05/08","00:11:07",263.000,"cc",28310.008,6,0.100,101.000,0.200,43.000,0.300,76.000,0.500,43.000,1.000,0,5.000,0
"05/05/08","00:11:13",266.000,"cc",28364.008,6,0.100,103.000,0.200,42.000,0.300,73.000,0.500,48.000,1.000,0,5.000,0
"05/05/08","00:11:19",219.000,"cc",28307.488,6,0.100,78.000,0.200,30.000,0.300,58.000,0.500,53.000,1.000,0,5.000,0
"05/05/08","00:11:25",254.000,"cc",28332.594,6,0.100,84.000,0.200,51.000,0.300,78.000,0.500,41.000,1.000,0,5.000,0
"05/05/08","00:11:31",262.000,"cc",28308.113,6,0.100,99.000,0.200,35.000,0.300,92.000,0.500,36.000,1.000,0,5.000,0
"05/05/08","00:11:37",227.000,"cc",28285.102,6,0.100,88.000,0.200,36.000,0.300,64.000,0.500,39.000,1.000,0,5.000,0
"05/05/08","00:11:43",276.000,"cc",28292.223,6,0.100,94.000,0.200,30.000,0.300,96.000,0.500,56.000,1.000,0,5.000,0
"05/05/08","00:11:49",240.000,"cc",28290.078,6,0.100,88.000,0.200,39.000,0.300,59.000,0.500,54.000,1.000,0,5.000,0
"05/05/08","00:11:55",237.000,"cc",28353.647,6,0.100,88.000,0.200,35.000,0.300,84.000,0.500,30.000,1.000,0,5.000,0
"05/05/08","00:12:01",240.000,"cc",28342.852,6,0.100,89.000,0.200,28.000,0.300,75.000,0.500,48.000,1.000,0,5.000,0
"05/05/08","00:12:07",255.000,"cc",28327.838,6,0.100,106.000,0.200,34.000,0.300,70.000,0.500,45.000,1.000,0,5.000,0
"05/05/08","00:12:13",240.000,"cc",28368.582,6,0.100,89.000,0.200,39.000,0.300,62.000,0.500,50.000,1.000,0,5.000,0
"05/05/08","00:12:19",239.000,"cc",28308.191,6,0.100,90.000,0.200,41.000,0.300,63.000,0.500,45.000,1.000,0,5.000,0
"05/05/08","00:12:25",260.000,"cc",28262.318,6,0.100,100.000,0.200,33.000,0.300,93.000,0.500,34.000,1.000,0,5.000,0
"05/05/08","00:12:31",195.000,"cc",28353.330,6,0.100,75.000,0.200,27.000,0.300,55.000,0.500,38.000,1.000,0,5.000,0
"05/05/08","00:12:37",246.000,"cc",28329.184,6,0.100,77.000,0.200,32.000,0.300,82.000,0.500,55.000,1.000,0,5.000,0
"05/05/08","00:12:43",232.000,"cc",28278.971,6,0.100,63.000,0.200,35.000,0.300,95.000,0.500,39.000,1.000,0,5.000,0
"05/05/08","00:12:49",224.000,"cc",28294.320,6,0.100,75.000,0.200,45.000,0.300,68.000,0.500,36.000,1.000,0,5.000,0
"05/05/08","00:12:55",209.000,"cc",28333.416,6,0.100,75.000,0.200,30.000,0.300,73.000,0.500,30.000,1.000,1.000,5.000,0
"05/05/08","00:13:01",250.000,"cc",28327.811,6,0.100,98.000,0.200,34.000,0.300,77.000,0.500,41.000,1.000,0,5.000,0
"05/05/08","00:13:07",250.000,"cc",28291.121,6,0.100,103.000,0.200,35.000,0.300,66.000,0.500,46.000,1.000,0,5.000,0
"05/05/08","00:13:13",248.000,"cc",28323.154,6,0.100,101.000,0.200,37.000,0.300,65.000,0.500,45.000,1.000,0,5.000,0
"05/05/08","00:13:19",224.000,"cc",28291.625,6,0.100,78.000,0.200,29.000,0.300,62.000,0.500,55.000,1.000,0,5.000,0
"05/05/08","00:13:25",254.000,"cc",28317.662,6,0.100,101.000,0.200,32.000,0.300,78.000,0.500,43.000,1.000,0,5.000,0
"05/05/08","00:13:31",223.000,"cc",28348.600,6,0.100,79.000,0.200,23.000,0.300,67.000,0.500,54.000,1.000,0,5.000,0
"05/05/08","00:13:37",227.000,"cc",28300.887,6,0.100,87.000,0.200,32.000,0.300,61.000,0.500,46.000,1.000,1.000,5.000,0
"05/05/08","00:13:43",224.000,"cc",28300.772,6,0.100,75.000,0.200,24.000,0.300,55.000,0.500,70.000,1.000,0,5.000,0
"05/05/08","00:13:49",258.000,"cc",28316.713,6,0.100,89.000,0.200,38.000,0.300,81.000,0.500,50.000,1.000,0,5.000,0
"05/05/08","00:13:55",266.000,"cc",28343.330,6,0.100,93.000,0.200,34.000,0.300,67.000,0.500,70.000,1.000,2.000,5.000,0
"05/05/08","00:14:01",284.000,"cc",28328.887,6,0.100,106.000,0.200,41.000,0.300,79.000,0.500,58.000,1.000,0,5.000,0
"05/05/08","00:14:07",251.000,"cc",28331.297,6,0.100,97.000,0.200,39.000,0.300,57.000,0.500,58.000,1.000,0,5.000,0
"05/05/08","00:14:13",252.000,"cc",28295.059,6,0.100,99.000,0.200,35.000,0.300,71.000,0.500,47.000,1.000,0,5.000,0
"05/05/08","00:14:19",260.000,"cc",28310.121,6,0.100,87.000,0.200,29.000,0.300,71.000,0.500,71.000,1.000,2.000,5.000,0
"05/05/08","00:14:25",275.000,"cc",28388.406,6,0.100,99.000,0.200,30.000,0.300,69.000,0.500,77.000,1.000,0,5.000,0
"05/05/08","00:14:31",215.000,"cc",28313.857,6,0.100,78.000,0.200,21.000,0.300,60.000,0.500,55.000,1.000,1.000,5.000,0
"05/05/08","00:14:37",265.000,"cc",28299.725,6,0.100,110.000,0.200,24.000,0.300,60.000,0.500,71.000,1.000,0,5.000,0
"05/05/08","00:14:43",242.000,"cc",28279.867,6,0.100,87.000,0.200,33.000,0.300,57.000,0.500,63.000,1.000,2.000,5.000,0
"05/05/08","00:14:49",4971.000,"cc",26742.844,6,0.100,3554.000,0.200,674.000,0.300,286.000,0.500,252.000,1.000,115.000,5.000,90.000
"05/05/08","00:14:55",402.000,"cc",26794.357,6,0.100,169.000,0.200,63.000,0.300,60.000,0.500,105.000,1.000,5.000,5.000,0
"05/05/08","00:15:01",296.000,"cc",27078.686,6,0.100,127.000,0.200,30.000,0.300,55.000,0.500,80.000,1.000,4.000,5.000,0
"05/05/08","00:15:07",294.000,"cc",27280.084,6,0.100,105.000,0.200,38.000,0.300,48.000,0.500,101.000,1.000,2.000,5.000,0
"05/05/08","00:15:13",275.000,"cc",27461.838,6,0.100,98.000,0.200,39.000,0.300,60.000,0.500,76.000,1.000,2.000,5.000,0
"05/05/08","00:15:19",281.000,"cc",27646.893,6,0.100,109.000,0.200,34.000,0.300,51.000,0.500,87.000,1.000,0,5.000,0
"05/05/08","00:15:25",282.000,"cc",27719.176,6,0.100,120.000,0.200,32.000,0.300,53.000,0.500,75.000,1.000,2.000,5.000,0
"05/05/08","00:15:31",310.000,"cc",27841.916,6,0.100,133.000,0.200,35.000,0.300,51.000,0.500,91.000,1.000,0,5.000,0
"05/05/08","00:15:37",315.000,"cc",28111.258,6,0.100,119.000,0.200,31.000,0.300,69.000,0.500,95.000,1.000,1.000,5.000,0
"05/05/08","00:15:43",267.000,"cc",28650.885,6,0.100,105.000,0.200,33.000,0.300,57.000,0.500,72.000,1.000,0,5.000,0
"05/05/08","00:15:49",276.000,"cc",29171.475,6,0.100,113.000,0.200,33.000,0.300,52.000,0.500,77.000,1.000,1.000,5.000,0
"05/05/08","00:15:55",219.000,"cc",29203.051,6,0.100,82.000,0.200,22.000,0.300,47.000,0.500,68.000,1.000,0,5.000,0
"05/05/08","00:16:01",261.000,"cc",29230.408,6,0.100,108.000,0.200,27.000,0.300,49.000,0.500,76.000,1.000,1.000,5.000,0
"05/05/08","00:16:07",274.000,"cc",29197.303,6,0.100,85.000,0.200,38.000,0.300,67.000,0.500,82.000,1.000,2.000,5.000,0
"05/05/08","00:16:13",282.000,"cc",29228.627,6,0.100,104.000,0.200,38.000,0.300,57.000,0.500,83.000,1.000,0,5.000,0
"05/05/08","00:16:19",269.000,"cc",29200.869,6,0.100,116.000,0.200,34.000,0.300,56.000,0.500,62.000,1.000,1.000,5.000,0
"05/05/08","00:16:25",268.000,"cc",29200.424,6,0.100,108.000,0.200,29.000,0.300,49.000,0.500,82.000,1.000,0,5.000,0
"05/05/08","00:16:31",276.000,"cc",29255.535,6,0.100,100.000,0.200,37.000,0.300,57.000,0.500,82.000,1.000,0,5.000,0
"05/05/08","00:16:37",258.000,"cc",28901.268,6,0.100,103.000,0.200,19.000,0.300,67.000,0.500,69.000,1.000,0,5.000,0
"05/05/08","00:16:43",280.000,"cc",28536.869,6,0.100,105.000,0.200,25.000,0.300,66.000,0.500,83.000,1.000,1.000,5.000,0
"05/05/08","00:16:49",286.000,"cc",28279.717,6,0.100,103.000,0.200,30.000,0.300,74.000,0.500,79.000,1.000,0,5.000,0
"05/05/08","00:16:55",411.000,"cc",28359.268,6,0.100,118.000,0.200,175.000,0.300,116.000,0.500,2.000,1.000,0,5.000,0
"05/05/08","00:17:01",375.000,"cc",28338.565,6,0.100,108.000,0.200,161.000,0.300,104.000,0.500,2.000,1.000,0,5.000,0
"05/05/08","00:17:07",347.000,"cc",28267.479,6,0.100,124.000,0.200,136.000,0.300,87.000,0.500,0,1.000,0,5.000,0
"05/05/08","00:17:13",369.000,"cc",28338.736,6,0.100,106.000,0.200,152.000,0.300,109.000,0.500,2.000,1.000,0,5.000,0
"05/05/08","00:17:19",366.000,"cc",28310.447,6,0.100,126.000,0.200,148.000,0.300,92.000,0.500,0,1.000,0,5.000,0
"05/05/08","00:17:25",347.000,"cc",28269.881,6,0.100,117.000,0.200,119.000,0.300,111.000,0.500,0,1.000,0,5.000,0
"05/05/08","00:17:31",396.000,"cc",28345.727,6,0.100,116.000,0.200,157.000,0.300,121.000,0.500,2.000,1.000,0,5.000,0
"05/05/08","00:17:37",347.000,"cc",28329.295,6,0.100,108.000,0.200,150.000,0.300,89.000,0.500,0,1.000,0,5.000,0
"05/05/08","00:17:43",290.000,"cc",28279.256,6,0.100,79.000,0.200,129.000,0.300,82.000,0.500,0,1.000,0,5.000,0
"05/05/08","00:17:49",358.000,"cc",28276.732,6,0.100,102.000,0.200,163.000,0.300,91.000,0.500,2.000,1.000,0,5.000,0
"05/05/08","00:17:55",377.000,"cc",28359.471,6,0.100,128.000,0.200,145.000,0.300,104.000,0.500,0,1.000,0,5.000,0
"05/05/08","00:18:01",393.000,"cc",28311.744,6,0.100,136.000,0.200,181.000,0.300,75.000,0.500,1.000,1.000,0,5.000,0
"05/05/08","00:18:07",408.000,"cc",28348.164,6,0.100,119.000,0.200,183.000,0.300,106.000,0.500,0,1.000,0,5.000,0
"05/05/08","00:18:13",398.000,"cc",28341.264,6,0.100,140.000,0.200,184.000,0.300,73.000,0.500,1.000,1.000,0,5.000,0
"05/05/08","00:18:19",387.000,"cc",28336.648,6,0.100,133.000,0.200,172.000,0.300,81.000,0.500,1.000,1.000,0,5.000,0
"05/05/08","00:18:25",385.000,"cc",28261.119,6,0.100,122.000,0.200,194.000,0.300,69.000,0.500,0,1.000,0,5.000,0
"05/05/08","00:18:31",392.000,"cc",28298.416,6,0.100,122.000,0.200,197.000,0.300,73.000,0.500,0,1.000,0,5.000,0
"05/05/08","00:18:37",1928.000,"cc",28324.209,6,0.100,1655.000,0.200,199.000,0.300,68.000,0.500,2.000,1.000,2.000,5.000,2.000
"05/05/08","00:18:43",2267.000,"cc",26615.969,6,0.100,1374.000,0.200,582.000,0.300,206.000,0.500,88.000,1.000,16.000,5.000,1.000
"05/05/08","00:18:49",442.000,"cc",27124.731,6,0.100,173.000,0.200,172.000,0.300,93.000,0.500,3.000,1.000,1.000,5.000,0
"05/05/08","00:18:55",443.000,"cc",27318.449,6,0.100,157.000,0.200,182.000,0.300,101.000,0.500,3.000,1.000,0,5.000,0
"05/05/08","00:19:01",399.000,"cc",27359.602,6,0.100,144.000,0.200,155.000,0.300,97.000,0.500,2.000,1.000,1.000,5.000,0
"05/05/08","00:19:07",343.000,"cc",27411.813,6,0.100,115.000,0.200,165.000,0.300,63.000,0.500,0,1.000,0,5.000,0